Location: Newark
(14.1000°N, 87.2167°W)
Time: 10:26:45
(UTC+00:00)

Hubble Space Telescope - Pass Details

Date: 23 July 2019
Orbit: 536 x 540 km, 28.5° (Epoch: 19 August)

Event Time Altitude Azimuth Distance (km) Brightness Sun altitude
Exits shadow 10:56:35 10° 260° (W) 1,771 2.8 -8.5°
Maximum altitude 11:00:33 50° 336° (NNW) 684 1.3 -7.6°
Drops below altitude 10° 11:04:33 10° 52° (NE) 1,776 4.9 -6.7°
Sets 11:06:52 0° 58° (ENE) 2,666 6.6 -6.2°
